Location: Moscow
(55.7500°N, 37.5830°E)
Time: 20:59:36
(UTC+03:00)

Tiros 1 despin weight - Pass Details

Date: 01 December 2021
Orbit: 592 x 641 km, 48.2° (Epoch: 21 January)

Event Time Altitude Azimuth Distance (km) Brightness Sun altitude
Rises 17:39:41 0° 255° (WSW) 2,824 ? -12.7°
Reaches altitude 10° 17:42:09 10° 245° (WSW) 1,922 ? -13.0°
Maximum altitude 17:46:01 31° 184° (S) 1,059 ? -13.5°
Drops below altitude 10° 17:49:53 10° 122° (ESE) 1,930 ? -14.0°
Enters shadow 17:49:57 10° 122° (ESE) 1,950 ? -14.0°
